Powrót do katalogu

STARLINK-2319

AktywnyŁącznośćVLEO
NORAD 47790·PAYLOAD·🇺🇸 United States

Wystrzelony Mar 11, 2021 z Cape Canaveral Space Force Station

Loading…

Następne Przeloty (najbliższe 24 godziny)

TLE

ŚwieżeSource: CelesTrak SupGP

Epoka: Sep 14, 2026, 22:11 UTC

1 47790C 21018D   26257.92479167  .00045513  00000+0  14637-2 0  2573
2 47790  53.1591  56.0316 0001311  80.1768  92.5631 15.31676747    14

Śledź STARLINK-2319 w czasie rzeczywistym z AllMySat

Download on the App Store